Total_Precipitation_Accumulation
0.08 0.11 0.29 0.40 0.42 0.34 0.25 0.19 0.17 0.17 0.16 0.15 0.15 0.15 0.15 0.16 0.16 0.15 0.16 0.18 0.20 0.25 0.31 0.34 0.38 0.49 0.50 0.36 0.23 0.13 0.10 0.08 0.07 0.06 0.06 0.08 0.11 0.14 0.12 0.11 0.13 0.17 0.22
0.07 0.13 0.28 0.39 0.46 0.42 0.35 0.27 0.19 0.16 0.18 0.19 0.20 0.19 0.19 0.18 0.17 0.19 0.22 0.23 0.26 0.31 0.33 0.36 0.40 0.46 0.44 0.32 0.19 0.08 0.04 0.02 0.01 0.01 0.01 0.02 0.07 0.11 0.08 0.07 0.09 0.17 0.20
0.09 0.14 0.26 0.38 0.46 0.46 0.43 0.36 0.27 0.22 0.21 0.23 0.26 0.25 0.25 0.22 0.22 0.22 0.25 0.28 0.32 0.32 0.33 0.38 0.39 0.38 0.34 0.27 0.16 0.07 0.04 0.02 0.01 0.01 0.02 0.03 0.09 0.12 0.10 0.10 0.14 0.18 0.19
0.11 0.17 0.26 0.37 0.47 0.50 0.49 0.42 0.37 0.34 0.31 0.31 0.34 0.34 0.34 0.29 0.27 0.27 0.28 0.28 0.29 0.28 0.28 0.29 0.26 0.23 0.16 0.12 0.11 0.08 0.05 0.02 0.01 0.02 0.03 0.05 0.10 0.18 0.18 0.17 0.19 0.20 0.20
0.19 0.22 0.33 0.42 0.47 0.51 0.51 0.49 0.46 0.43 0.42 0.41 0.41 0.41 0.44 0.40 0.35 0.32 0.29 0.27 0.24 0.21 0.20 0.21 0.17 0.13 0.09 0.07 0.06 0.07 0.05 0.03 0.02 0.02 0.04 0.05 0.10 0.21 0.20 0.18 0.18 0.18 0.21
0.25 0.28 0.39 0.47 0.50 0.49 0.50 0.49 0.49 0.47 0.47 0.47 0.42 0.43 0.49 0.52 0.46 0.37 0.31 0.26 0.20 0.18 0.16 0.15 0.12 0.10 0.08 0.06 0.05 0.05 0.04 0.02 0.01 0.03 0.05 0.07 0.09 0.19 0.19 0.16 0.16 0.17 0.19
0.31 0.34 0.45 0.58 0.64 0.62 0.60 0.56 0.50 0.50 0.49 0.50 0.46 0.45 0.50 0.54 0.54 0.43 0.33 0.25 0.18 0.16 0.15 0.13 0.10 0.09 0.08 0.07 0.06 0.05 0.03 0.02 0.02 0.03 0.05 0.07 0.11 0.20 0.19 0.16 0.16 0.17 0.17
0.40 0.45 0.56 0.71 0.76 0.75 0.72 0.66 0.61 0.58 0.55 0.54 0.54 0.56 0.55 0.55 0.56 0.45 0.32 0.26 0.23 0.18 0.16 0.13 0.11 0.09 0.08 0.08 0.07 0.05 0.03 0.02 0.01 0.01 0.02 0.04 0.08 0.15 0.16 0.14 0.14 0.15 0.14
0.58 0.62 0.71 0.78 0.84 0.89 0.81 0.70 0.67 0.64 0.64 0.60 0.59 0.62 0.58 0.55 0.51 0.41 0.29 0.26 0.25 0.23 0.19 0.16 0.14 0.12 0.10 0.09 0.07 0.05 0.03 0.01 0.01 0.01 0.02 0.03 0.06 0.11 0.12 0.13 0.15 0.17 0.16
0.79 0.75 0.77 0.81 0.85 0.94 0.94 0.79 0.67 0.61 0.61 0.63 0.63 0.60 0.50 0.46 0.48 0.42 0.26 0.23 0.24 0.23 0.20 0.18 0.15 0.15 0.13 0.10 0.07 0.05 0.03 0.01 0.01 0.01 0.02 0.02 0.06 0.10 0.10 0.13 0.16 0.18 0.18
1.08 0.98 0.88 0.90 0.88 0.93 0.98 0.88 0.78 0.68 0.63 0.61 0.61 0.55 0.50 0.49 0.46 0.41 0.27 0.17 0.20 0.20 0.19 0.19 0.18 0.17 0.15 0.11 0.08 0.04 0.03 0.02 0.01 0.01 0.02 0.02 0.05 0.08 0.09 0.12 0.13 0.14 0.14
1.24 1.17 1.03 0.96 0.95 1.01 1.00 1.00 0.97 0.84 0.72 0.64 0.58 0.59 0.56 0.51 0.50 0.43 0.34 0.21 0.19 0.19 0.18 0.20 0.20 0.21 0.16 0.12 0.09 0.06 0.04 0.03 0.02 0.02 0.01 0.02 0.06 0.09 0.10 0.10 0.09 0.10 0.10
1.42 1.39 1.25 1.11 1.08 1.06 1.02 0.99 1.02 0.91 0.81 0.74 0.67 0.64 0.63 0.60 0.53 0.53 0.45 0.34 0.28 0.20 0.20 0.20 0.21 0.18 0.15 0.14 0.13 0.09 0.06 0.04 0.03 0.03 0.02 0.03 0.05 0.09 0.12 0.12 0.10 0.10 0.11
1.68 1.67 1.49 1.33 1.23 1.18 1.10 0.97 0.92 0.89 0.82 0.74 0.67 0.69 0.69 0.64 0.54 0.50 0.47 0.37 0.32 0.25 0.22 0.22 0.20 0.17 0.14 0.15 0.15 0.12 0.09 0.06 0.04 0.03 0.02 0.02 0.03 0.07 0.10 0.12 0.12 0.11 0.13
1.95 1.94 1.85 1.59 1.38 1.26 1.20 1.11 0.94 0.81 0.73 0.73 0.70 0.66 0.62 0.57 0.50 0.47 0.47 0.45 0.39 0.30 0.24 0.23 0.23 0.20 0.17 0.16 0.15 0.13 0.11 0.09 0.07 0.05 0.03 0.01 0.02 0.04 0.08 0.11 0.14 0.15 0.18
2.11 2.21 2.21 1.91 1.59 1.35 1.25 1.18 1.05 0.86 0.74 0.74 0.74 0.68 0.64 0.56 0.50 0.49 0.43 0.43 0.41 0.37 0.33 0.28 0.25 0.27 0.25 0.22 0.18 0.16 0.16 0.15 0.13 0.09 0.06 0.04 0.03 0.03 0.05 0.10 0.16 0.22 0.25
2.19 2.37 2.43 2.28 1.97 1.55 1.34 1.25 1.16 1.02 0.87 0.77 0.73 0.71 0.70 0.66 0.60 0.58 0.51 0.47 0.43 0.42 0.41 0.37 0.34 0.35 0.33 0.29 0.23 0.20 0.18 0.16 0.13 0.12 0.10 0.08 0.07 0.05 0.04 0.07 0.15 0.23 0.26
2.25 2.37 2.45 2.42 2.26 1.88 1.48 1.32 1.22 1.15 1.04 0.90 0.84 0.83 0.78 0.74 0.71 0.71 0.63 0.53 0.49 0.52 0.50 0.43 0.38 0.38 0.33 0.31 0.27 0.23 0.20 0.17 0.15 0.13 0.12 0.09 0.08 0.07 0.05 0.05 0.09 0.16 0.21
2.12 2.30 2.52 2.47 2.35 2.16 1.85 1.59 1.44 1.30 1.21 1.09 0.93 0.86 0.90 0.89 0.86 0.83 0.71 0.59 0.55 0.56 0.54 0.53 0.47 0.43 0.37 0.32 0.30 0.28 0.25 0.21 0.18 0.16 0.13 0.10 0.07 0.06 0.06 0.06 0.06 0.07 0.11
1.96 2.18 2.36 2.62 2.56 2.52 2.42 2.10 1.77 1.57 1.37 1.24 1.09 0.96 0.94 0.95 0.95 0.95 0.86 0.74 0.70 0.64 0.56 0.54 0.53 0.53 0.49 0.44 0.40 0.34 0.31 0.28 0.24 0.19 0.16 0.13 0.10 0.08 0.07 0.07 0.07 0.06 0.06
1.79 2.01 2.13 2.34 2.53 2.58 2.48 2.17 1.82 1.59 1.52 1.46 1.32 1.19 1.12 1.06 1.02 1.01 0.98 0.91 0.81 0.72 0.64 0.60 0.60 0.58 0.58 0.60 0.60 0.49 0.38 0.32 0.28 0.23 0.19 0.17 0.14 0.12 0.11 0.11 0.11 0.10 0.09
1.56 1.71 1.95 2.02 2.27 2.33 2.27 2.22 2.05 1.94 1.83 1.72 1.62 1.42 1.30 1.25 1.15 1.06 1.00 0.99 0.91 0.83 0.79 0.79 0.77 0.72 0.67 0.68 0.73 0.69 0.55 0.43 0.32 0.24 0.21 0.20 0.19 0.19 0.17 0.15 0.14 0.14 0.13
1.30 1.56 1.68 1.75 1.98 2.20 2.28 2.41 2.49 2.44 2.13 1.86 1.69 1.61 1.49 1.42 1.33 1.20 1.09 1.07 1.05 0.94 0.86 0.89 0.93 0.92 0.92 0.91 0.88 0.97 0.86 0.60 0.43 0.30 0.25 0.23 0.22 0.23 0.22 0.21 0.18 0.17 0.18
0.98 1.29 1.62 1.76 1.89 2.09 2.36 2.37 2.31 2.18 1.97 1.71 1.69 1.74 1.71 1.61 1.51 1.36 1.27 1.20 1.18 1.13 1.04 1.05 1.08 1.12 1.16 1.14 1.09 1.03 0.97 0.81 0.75 0.54 0.33 0.27 0.25 0.23 0.25 0.26 0.24 0.21 0.21
0.82 1.03 1.30 1.59 1.83 2.02 2.15 2.21 2.26 2.12 1.94 1.89 1.82 1.78 1.70 1.59 1.54 1.46 1.40 1.37 1.33 1.30 1.29 1.31 1.29 1.27 1.26 1.24 1.20 1.17 1.17 1.06 0.94 0.87 0.64 0.44 0.39 0.34 0.30 0.29 0.28 0.28 0.29
0.72 0.85 1.03 1.29 1.48 1.69 1.89 1.99 2.05 2.05 2.05 2.01 1.83 1.75 1.75 1.72 1.64 1.54 1.52 1.52 1.52 1.49 1.45 1.44 1.45 1.47 1.45 1.39 1.36 1.28 1.24 1.19 1.07 1.08 0.97 0.73 0.65 0.55 0.48 0.43 0.40 0.39 0.39